[[{"header":{"parameterUnit":"m.s-1","parameterCategory":1,"la1":30.2991,"la2":30.254,"lo1":-89.0895,"lo2":-89.0444,"dy":0.0017,"dx":0.0017,"nx":28,"ny":28,"refTime":"2024-04-06T09:00:00:Z","depth":0,"parameterNumber":2,"parameterNumberName":"U-component_of_WINDS"},"data":[0,0,0,0,0,0,0,0,0,0,0,0,0,0,0,0,0,0,0,0,0,0,0,0,0,0,0,0,0,0,0,0,0,0,0,0,0,0,0,0,0,0,0,0,0,0,0,0,0,0,0,0,0,0,0,0,0,0,-2.7921,-2.7922,0,-2.7945,-2.7946,-2.7946,-2.7904,-2.7902,-2.7901,-2.79,-2.7924,-2.7925,-2.7927,0,0,0,0,0,0,0,0,0,0,0,0,0,-2.7838,-2.784,-2.7921,-2.7922,-2.7922,-2.7945,-2.7946,-2.7946,-2.7904,-2.7902,-2.7901,-2.7899,-2.7923,-2.7925,-2.7928,0,0,0,0,0,0,0,0,0,0,0,0,0,-2.787,-2.7841,-2.7921,-2.7904,-2.7903,-2.7945,-2.7946,-2.7946,-2.7904,-2.7902,-2.79,-2.7898,-2.7922,-2.7925,-2.7928,-2.7989,0,0,-2.7937,-2.7938,0,0,0,0,0,0,0,0,-2.7868,-2.7873,-2.7906,-2.7905,-2.7904,-2.7919,-2.7925,-2.796,-2.7905,-2.7904,-2.79,-2.7897,-2.7924,-2.7927,-2.7936,-2.799,-2.7991,-2.7937,-2.7939,-2.794,-2.7941,0,0,0,0,0,0,0,-2.7866,-2.7871,-2.7931,-2.7907,-2.7905,-2.7895,-2.7897,-2.7932,-2.7925,-2.7904,-2.7901,-2.7904,-2.7923,-2.7933,-2.7936,-2.7991,-2.7937,-2.794,-2.7941,-2.7943,-2.8095,-2.8097,0,0,0,0,0,0,-2.7866,-2.787,-2.793,-2.7932,-2.788,-2.7898,-2.79,-2.7917,-2.7925,-2.7924,-2.7906,-2.7902,-2.7929,-2.7933,-2.7937,-2.8007,-2.794,-2.7943,-2.7945,-2.8093,-2.8095,-2.8098,0,0,0,0,0,0,-2.7864,-2.7872,-2.7929,-2.79,-2.7906,-2.7902,-2.792,-2.7918,-2.7928,-2.7927,-2.7925,-2.7917,-2.7927,-2.7932,-2.7976,-2.8007,-2.7944,-2.7947,-2.809,-2.8093,-2.8097,-2.8149,0,0,0,0,0,0,-2.7862,-2.7871,-2.7894,-2.7901,-2.7908,-2.7968,-2.7922,-2.792,-2.7933,-2.7929,-2.7937,-2.7936,-2.7926,-2.7972,-2.7979,-2.801,-2.7949,-2.8087,-2.8091,-2.8096,-2.8144,-2.8154,-2.8162,0,0,0,0,0,-2.7859,-2.7908,-2.7896,-2.7903,-2.7937,-2.797,-2.7974,-2.7962,-2.7936,-2.7959,-2.7958,-2.7936,-2.8003,-2.7976,-2.7984,-2.8017,-2.8085,-2.809,-2.8095,-2.814,-2.8152,-2.8161,0,0,0,0,0,0,-2.7906,-2.7909,-2.7895,-2.7948,-2.7959,-2.7963,-2.7991,-2.7974,-2.7993,-2.7988,-2.7971,-2.7973,-2.802,-2.8023,-2.7993,-2.8075,-2.804,-2.8047,-2.8071,-2.8082,-2.8091,-2.8088,-2.7952,0,0,0,0,0,-2.7922,-2.7949,-2.795,-2.7997,-2.8003,-2.7997,-2.801,-2.8,-2.8011,-2.8015,-2.8017,-2.8028,-2.8052,-2.8067,-2.8089,-2.8145,-2.8146,-2.8171,-2.818,-2.8187,-2.8193,-2.8221,-2.8233,-2.8115,-2.8115,-2.8115,0,0,-2.7956,-2.7961,-2.7979,-2.8006,-2.8013,-2.8041,-2.8001,-2.8032,-2.8052,-2.802,-2.806,-2.8063,-2.8074,-2.8124,-2.8145,-2.8127,-2.8226,-2.8194,-2.82,-2.8201,-2.8228,-2.8239,-2.8249,-2.8118,-2.8118,-2.8117,0,0,-2.8032,-2.8039,-2.8078,-2.8086,-2.8098,-2.8093,-2.8103,-2.811,-2.811,-2.815,-2.8126,-2.815,-2.8191,-2.82,-2.821,-2.8289,-2.8269,-2.8297,-2.8341,-2.837,-2.8379,-2.8387,-2.8414,-2.8424,-2.8303,-2.8303,-2.8303,0,-2.8072,-2.8113,-2.81,-2.8132,-2.8144,-2.8117,-2.8156,-2.8165,-2.8183,-2.8192,-2.8172,-2.8222,-2.8228,-2.8279,-2.8298,-2.8307,-2.8317,-2.8295,-2.8379,-2.8387,-2.8394,-2.8419,-2.843,-2.8306,-2.8306,-2.8305,-2.8305,0,-2.8162,-2.819,-2.822,-2.8238,-2.8254,-2.829,-2.8281,-2.8299,-2.8287,-2.8285,-2.8326,-2.8332,-2.8354,-2.8366,-2.8355,-2.8415,-2.8403,-2.8381,-2.8345,-2.8409,-2.8432,-2.8442,-2.8311,-2.8309,-2.8308,-2.8308,0,0,-2.8266,-2.8276,-2.8287,-2.8295,-2.8306,-2.8328,-2.8362,-2.8384,-2.8398,-2.8413,-2.844,-2.8476,-2.8455,-2.8466,-2.8456,-2.8481,-2.8542,-2.8456,-2.8456,-2.847,-2.8607,-2.8622,-2.8633,-2.853,-2.8531,-2.8533,-2.8605,0,-2.834,-2.8398,-2.8387,-2.8444,-2.847,-2.8445,-2.8475,-2.8485,-2.8483,-2.8505,-2.8503,-2.8528,-2.85,-2.8507,-2.8531,-2.8529,-2.8569,-2.8524,-2.8554,-2.8555,-2.8549,-2.8646,-2.8662,-2.8729,-2.8614,-2.8616,-2.8617,0,-2.8433,-2.845,-2.851,-2.8516,-2.8527,-2.8554,-2.8572,-2.8593,-2.8604,-2.8601,-2.8614,-2.8599,-2.8633,-2.8597,-2.8642,-2.8612,-2.8624,-2.8626,-2.8628,-2.8628,-2.8588,-2.8647,-2.8751,-2.876,-2.8632,-2.863,-2.8629,0,-2.8501,-2.8539,-2.8579,-2.8587,-2.8596,-2.8615,-2.862,-2.8629,-2.8642,-2.8658,-2.8667,-2.8687,-2.8698,-2.8713,-2.8704,-2.8679,-2.8751,-2.8715,-2.8748,-2.8748,-2.8763,-2.8761,-2.8868,-2.8774,-2.8773,-2.8773,-2.8773,0,-2.8583,-2.8621,-2.861,-2.8634,-2.8675,-2.8662,-2.8703,-2.8705,-2.8712,-2.8736,-2.8717,-2.874,-2.8727,-2.8749,-2.8742,-2.878,-2.8785,-2.8783,-2.878,-2.8784,-2.8784,-2.879,-2.8784,-2.8776,-2.8775,-2.8775,-2.8774,0,-2.8665,-2.866,-2.8702,-2.8707,-2.8709,-2.8739,-2.8743,-2.8766,-2.8763,-2.8794,-2.8801,-2.8797,-2.8821,-2.8814,-2.8841,-2.8836,-2.8884,-2.8876,-2.888,-2.8877,-2.891,-2.8907,-2.9023,-2.9037,-2.8935,-2.8936,-2.8937,0,-2.8717,-2.8745,-2.8754,-2.8768,-2.8774,-2.8799,-2.8812,-2.8801,-2.8816,-2.883,-2.8851,-2.8874,-2.8891,-2.8932,-2.8931,-2.8951,-2.8943,-2.8982,-2.8946,-2.8948,-2.8941,-2.8939,-2.8941,-2.8989,-2.899,-2.8991,-2.8992,0,-2.881,-2.8806,-2.8826,-2.8846,-2.8862,-2.8877,-2.889,-2.8903,-2.8893,-2.891,-2.8935,-2.8949,-2.8977,-2.8999,-2.9018,-2.9022,-2.9005,-2.9004,-2.9012,-2.9015,-2.9015,-2.9013,-2.8898,-2.9,-2.9,-2.8999,-2.8998,-2.8998,-2.8877,-2.89,-2.8909,-2.8932,-2.8941,-2.8954,-2.8975,-2.8975,-2.8996,-2.9017,-2.9009,-2.9038,-2.9047,-2.907,-2.9077,-2.9099,-2.9084,-2.9096,-2.9099,-2.9102,-2.9105,-2.9013,-2.9102,-2.9102,-2.9102,-2.9102,-2.9102,0,-2.8967,-2.8972,-2.8993,-2.9012,-2.903,-2.9013,-2.9026,-2.9042,-2.9068,-2.9078,-2.9096,-2.9124,-2.9146,-2.9147,-2.9168,-2.9185,-2.9177,-2.919,-2.9188,-2.9189,-2.9119,-2.9108,-2.9196,-2.9196,-2.9196,-2.9196,-2.9196,-2.9196,-2.9016,-2.9053,-2.905,-2.9092,-2.9096,-2.9124,-2.9133,-2.9144,-2.9152,-2.9185,-2.9203,-2.9203,-2.921,-2.9231,-2.925,-2.9249,-2.9257,-2.9273,-2.9269,-2.9203,-2.9194,-2.9185,-2.9175,-2.9275,-2.9275,-2.9337,-2.9338,-2.9338]},{"header":{"parameterUnit":"m.s-1","parameterCategory":1,"la1":30.2991,"la2":30.254,"lo1":-89.0895,"lo2":-89.0444,"dy":0.0017,"dx":0.0017,"nx":28,"ny":28,"refTime":"2024-04-06T09:00:00:Z","depth":0,"parameterNumber":3,"parameterNumberName":"V-component_of_WINDS"},"data":[0,0,0,0,0,0,0,0,0,0,0,0,0,0,0,0,0,0,0,0,0,0,0,0,0,0,0,0,0,0,0,0,0,0,0,0,0,0,0,0,0,0,0,0,0,0,0,0,0,0,0,0,0,0,0,0,0,0,3.2249,3.2249,0,3.228,3.228,3.2281,3.2225,3.2223,3.2221,3.222,3.2248,3.225,3.2253,0,0,0,0,0,0,0,0,0,0,0,0,0,3.2139,3.2141,3.2249,3.2249,3.225,3.228,3.228,3.2281,3.2225,3.2223,3.2221,3.2219,3.2247,3.225,3.2253,0,0,0,0,0,0,0,0,0,0,0,0,0,3.218,3.2142,3.2249,3.2226,3.2224,3.228,3.228,3.2281,3.2226,3.2223,3.222,3.2218,3.2246,3.225,3.2254,3.2332,0,0,3.2265,3.2267,0,0,0,0,0,0,0,0,3.2178,3.2184,3.2229,3.2228,3.2226,3.2246,3.2252,3.2298,3.2227,3.2225,3.222,3.2216,3.2249,3.2253,3.2264,3.2333,3.2335,3.2265,3.2268,3.2269,3.227,0,0,0,0,0,0,0,3.2175,3.2183,3.2261,3.223,3.2228,3.2213,3.2216,3.226,3.2252,3.2225,3.2221,3.2226,3.2248,3.2261,3.2265,3.2335,3.2265,3.2268,3.2271,3.2272,3.2469,3.2472,0,0,0,0,0,0,3.2176,3.2181,3.226,3.2262,3.2195,3.2217,3.222,3.2242,3.2252,3.2251,3.2228,3.2223,3.2256,3.226,3.2265,3.2357,3.2269,3.2273,3.2275,3.2466,3.247,3.2473,0,0,0,0,0,0,3.2173,3.2183,3.2259,3.222,3.2229,3.2222,3.2247,3.2244,3.2257,3.2254,3.2252,3.2243,3.2254,3.226,3.2316,3.2358,3.2274,3.2278,3.2463,3.2467,3.2472,3.2542,0,0,0,0,0,0,3.2171,3.2183,3.2213,3.2221,3.2231,3.231,3.225,3.2247,3.2264,3.2258,3.2268,3.2266,3.2252,3.2311,3.232,3.2361,3.2281,3.2459,3.2465,3.247,3.2536,3.2549,3.2559,0,0,0,0,0,3.2167,3.2231,3.2215,3.2225,3.2269,3.2313,3.2318,3.2301,3.2268,3.2298,3.2296,3.2266,3.2352,3.2317,3.2327,3.237,3.2456,3.2463,3.247,3.2531,3.2546,3.2559,0,0,0,0,0,0,3.2227,3.2232,3.2214,3.2283,3.2298,3.2303,3.234,3.2318,3.2342,3.2335,3.2312,3.2315,3.2375,3.2378,3.2339,3.2446,3.2398,3.2407,3.2442,3.2456,3.2467,3.2465,3.2284,0,0,0,0,0,3.2248,3.2284,3.2286,3.2347,3.2356,3.2347,3.2365,3.2351,3.2365,3.2371,3.2373,3.2387,3.2416,3.2436,3.2464,3.2537,3.2537,3.2571,3.2583,3.2592,3.26,3.2638,3.2653,3.2495,3.2495,3.2495,0,0,3.2293,3.23,3.2324,3.236,3.2369,3.2406,3.2353,3.2393,3.242,3.2377,3.2429,3.2432,3.2445,3.251,3.2538,3.2514,3.2644,3.2601,3.2609,3.2611,3.2646,3.2661,3.2674,3.25,3.2499,3.2498,0,0,3.2392,3.2402,3.2453,3.2465,3.248,3.2474,3.2487,3.2496,3.2496,3.2549,3.2517,3.2548,3.26,3.2611,3.2623,3.2728,3.2701,3.2737,3.2797,3.2835,3.2847,3.2858,3.2894,3.2908,3.2745,3.2746,3.2746,0,3.2445,3.25,3.2482,3.2526,3.2542,3.2506,3.2557,3.2569,3.2592,3.2604,3.2577,3.2642,3.2649,3.2715,3.2741,3.2752,3.2765,3.2736,3.2847,3.2858,3.2867,3.2902,3.2916,3.275,3.2749,3.2749,3.2748,0,3.2563,3.2602,3.2641,3.2666,3.2687,3.2734,3.2723,3.2746,3.2731,3.2727,3.2781,3.2788,3.2816,3.2831,3.2816,3.2896,3.288,3.2851,3.2802,3.2887,3.2919,3.2932,3.2756,3.2754,3.2753,3.2752,0,0,3.27,3.2716,3.273,3.2741,3.2756,3.2785,3.2831,3.2859,3.2879,3.2897,3.2933,3.2979,3.2952,3.2966,3.2952,3.2985,3.3066,3.2951,3.2951,3.2971,3.3153,3.3174,3.319,3.3049,3.3052,3.3053,3.3151,0,3.2798,3.2877,3.2863,3.2939,3.2974,3.2941,3.298,3.2993,3.2991,3.302,3.3017,3.305,3.3012,3.302,3.3052,3.305,3.3102,3.3042,3.3082,3.3083,3.3078,3.3206,3.3229,3.3321,3.3164,3.3166,3.3167,0,3.2922,3.2946,3.3026,3.3036,3.305,3.3086,3.3111,3.3139,3.3153,3.3149,3.3166,3.3145,3.3189,3.3142,3.3201,3.3161,3.3177,3.3178,3.3181,3.3183,3.313,3.3211,3.335,3.3364,3.3187,3.3185,3.3184,0,3.3013,3.3065,3.3119,3.313,3.3143,3.3168,3.3175,3.3186,3.3204,3.3226,3.3237,3.3264,3.3278,3.3298,3.3285,3.3252,3.3347,3.3298,3.3344,3.3344,3.3364,3.3363,3.3507,3.3377,3.3376,3.3376,3.3376,0,3.3123,3.3173,3.316,3.3194,3.3249,3.3232,3.3286,3.3289,3.3299,3.3332,3.3304,3.3335,3.3317,3.3346,3.3336,3.3387,3.3394,3.3391,3.3388,3.3393,3.3393,3.3402,3.3395,3.338,3.3379,3.3378,3.3378,0,3.3233,3.3226,3.3283,3.3292,3.3295,3.3335,3.3341,3.3372,3.3368,3.341,3.3419,3.3413,3.3446,3.3436,3.3471,3.3464,3.3528,3.3517,3.3524,3.3521,3.3567,3.3562,3.372,3.374,3.3598,3.3599,3.36,0,3.3303,3.3341,3.3353,3.3374,3.3383,3.3416,3.3434,3.3419,3.344,3.3459,3.3487,3.3518,3.3542,3.3596,3.3594,3.3621,3.361,3.3663,3.3613,3.3617,3.3609,3.3607,3.361,3.3673,3.3674,3.3676,3.3677,0,3.3428,3.3423,3.3451,3.3479,3.3502,3.3523,3.3541,3.3559,3.3545,3.3569,3.3603,3.3622,3.3658,3.3689,3.3713,3.3719,3.3695,3.3693,3.3705,3.371,3.3712,3.371,3.355,3.3689,3.3688,3.3687,3.3686,3.3686,3.3519,3.3551,3.3565,3.3598,3.361,3.3628,3.3657,3.3658,3.3686,3.3715,3.3705,3.3743,3.3756,3.3787,3.3796,3.3825,3.3804,3.3822,3.3826,3.383,3.3836,3.3708,3.3829,3.3829,3.3829,3.3828,3.3828,0,3.3642,3.3649,3.368,3.3706,3.3732,3.3709,3.3728,3.375,3.3785,3.38,3.3824,3.3863,3.3892,3.3894,3.3921,3.3945,3.3934,3.3952,3.395,3.3951,3.3853,3.384,3.396,3.396,3.396,3.396,3.396,3.396,3.3709,3.3761,3.3758,3.3817,3.3823,3.3862,3.3875,3.3891,3.3902,3.3947,3.3972,3.3973,3.3982,3.401,3.4036,3.4035,3.4046,3.4068,3.4063,3.3971,3.3958,3.3946,3.3933,3.4071,3.4071,3.4158,3.4159,3.416]}]]